| time (UTC) | temp F | wind direction | speed knots | gust knots | rain 1hr in | rain 24hr in | rain mn in | humidity % | barometer mb |
| 20260906071555 | 69 | 328 | 0.0 | 0.9 | 0.00 | 0.09 | 0.00 | 72 | 1010.2 |
| 20260906070051 | 69 | 328 | 0.0 | 2.6 | 0.00 | 0.09 | 0.00 | 72 | 1010.3 |
| 20260906064547 | 68 | 347 | 0.0 | 0.0 | 0.00 | 0.09 | 0.00 | 72 | 1010.5 |
| 20260906063043 | 68 | 347 | 0.0 | 0.0 | 0.00 | 0.09 | 0.00 | 71 | 1010.8 |
| 20260906061542 | 69 | 347 | 0.0 | 0.0 | 0.00 | 0.09 | 0.00 | 72 | 1010.9 |
| 20260906060047 | 68 | 347 | 0.0 | 0.0 | 0.00 | 0.09 | 0.00 | 71 | 1011.1 |
| 20260906054536 | 68 | 347 | 0.0 | 0.0 | 0.00 | 0.09 | 0.00 | 71 | 1011.2 |
| 20260906053034 | 68 | 347 | 0.0 | 0.0 | 0.00 | 0.09 | 0.00 | 71 | 1011.5 |
| 20260906051532 | 68 | 347 | 0.0 | 0.0 | 0.00 | 0.09 | 0.00 | 71 | 1011.4 |
| 20260906050030 | 68 | 347 | 0.0 | 0.0 | 0.00 | 0.09 | 0.00 | 71 | 1011.4 |
| 20260906044528 | 69 | 347 | 0.0 | 0.0 | 0.00 | 0.09 | 0.00 | 71 | 1011.5 |
| 20260906043023 | 69 | 347 | 0.0 | 0.0 | 0.00 | 0.09 | 0.00 | 71 | 1011.7 |
| 20260906041528 | 69 | 347 | 0.0 | 0.0 | 0.00 | 0.09 | 0.00 | 71 | 1012.0 |
| 20260906040018 | 69 | 347 | 0.0 | 0.0 | 0.00 | 0.09 | 0.00 | 71 | 1011.8 |
| 20260906034524 | 69 | 347 | 0.0 | 0.0 | 0.00 | 0.09 | 0.09 | 71 | 1011.6 |
| 20260906033017 | 69 | 347 | 0.0 | 0.0 | 0.00 | 0.09 | 0.09 | 71 | 1011.7 |
| 20260906031510 | 69 | 347 | 0.0 | 0.0 | 0.00 | 0.09 | 0.09 | 71 | 1011.7 |
| 20260906030009 | 69 | 346 | 0.0 | 0.0 | 0.00 | 0.09 | 0.09 | 71 | 1011.7 |
| 20260906024505 | 69 | 158 | 0.0 | 0.0 | 0.00 | 0.09 | 0.09 | 71 | 1011.5 |
| 20260906023003 | 69 | 158 | 0.0 | 0.0 | 0.00 | 0.09 | 0.09 | 71 | 1011.5 |
| 20260906021603 | 70 | 158 | 0.0 | 0.0 | 0.00 | 0.09 | 0.09 | 71 | 1011.4 |
| 20260906020058 | 70 | 340 | 0.0 | 0.0 | 0.00 | 0.09 | 0.09 | 71 | 1011.4 |
| 20260906014605 | 70 | 340 | 0.0 | 0.0 | 0.00 | 0.09 | 0.09 | 70 | 1011.4 |
| 20260906013054 | 70 | 340 | 0.0 | 0.0 | 0.00 | 0.09 | 0.09 | 70 | 1011.4 |
| 20260906011655 | 70 | 340 | 0.0 | 0.0 | 0.00 | 0.09 | 0.09 | 70 | 1011.2 |
| 20260906010049 | 71 | 340 | 0.0 | 0.0 | 0.00 | 0.09 | 0.09 | 69 | 1011.3 |
| 20260906004547 | 71 | 340 | 0.0 | 0.0 | 0.00 | 0.09 | 0.09 | 68 | 1011.2 |
| 20260906003044 | 71 | 340 | 0.0 | 0.0 | 0.00 | 0.09 | 0.09 | 66 | 1011.2 |
| 20260906001543 | 72 | 340 | 0.0 | 0.0 | 0.00 | 0.09 | 0.09 | 65 | 1011.2 |
| 20260906000041 | 72 | 340 | 0.0 | 0.0 | 0.00 | 0.09 | 0.09 | 65 | 1011.2 |
| 20260905234538 | 73 | 88 | 0.0 | 0.0 | 0.00 | 0.09 | 0.09 | 65 | 1011.5 |
| 20260905233053 | 74 | 61 | 0.0 | 0.0 | 0.00 | 0.09 | 0.09 | 65 | 1011.1 |
| 20260905231548 | 74 | 60 | 0.0 | 0.0 | 0.00 | 0.09 | 0.09 | 64 | 1010.5 |
| 20260905230033 | 74 | 114 | 0.0 | 0.0 | 0.00 | 0.09 | 0.09 | 64 | 1010.4 |
| 20260905224531 | 74 | 115 | 0.0 | 0.0 | 0.00 | 0.09 | 0.09 | 63 | 1010.4 |
| 20260905223030 | 74 | 141 | 0.0 | 0.0 | 0.00 | 0.09 | 0.09 | 65 | 1010.4 |
| 20260905221535 | 73 | 117 | 0.0 | 2.6 | 0.01 | 0.09 | 0.09 | 65 | 1009.8 |
| 20260905220025 | 73 | 323 | 0.9 | 3.5 | 0.01 | 0.09 | 0.09 | 67 | 1009.6 |
| 20260905214523 | 73 | 278 | 0.0 | 0.0 | 0.01 | 0.09 | 0.09 | 69 | 1009.2 |
| 20260905213029 | 72 | 281 | 0.0 | 0.0 | 0.00 | 0.08 | 0.08 | 67 | 1009.4 |
| 20260905211520 | 71 | 280 | 0.0 | 0.9 | 0.08 | 0.08 | 0.08 | 62 | 1009.6 |
| 20260905210018 | 72 | 322 | 0.0 | 3.5 | 0.08 | 0.08 | 0.08 | 60 | 1009.8 |
| 20260905204510 | 72 | 153 | 0.0 | 1.7 | 0.08 | 0.08 | 0.08 | 62 | 1010.5 |
| 20260905203008 | 75 | 299 | 0.0 | 5.2 | 0.08 | 0.08 | 0.08 | 63 | 1010.5 |
| 20260905201506 | 86 | 1 | 8.7 | 21.7 | 0.00 | 0.00 | 0.00 | 50 | 1010.7 |
| 20260905200004 | 95 | 281 | 0.0 | 4.3 | 0.00 | 0.00 | 0.00 | 42 | 1009.4 |
| 20260905194600 | 97 | 302 | 0.0 | 4.3 | 0.00 | 0.00 | 0.00 | 38 | 1009.4 |
| 20260905193057 | 99 | 338 | 0.0 | 4.3 | 0.00 | 0.00 | 0.00 | 34 | 1009.8 |
| 20260905191557 | 99 | 346 | 0.9 | 4.3 | 0.00 | 0.00 | 0.00 | 35 | 1009.9 |
| 20260905190107 | 97 | 337 | 1.7 | 5.2 | 0.00 | 0.00 | 0.00 | 37 | 1009.8 |
| 20260905184604 | 98 | 336 | 0.9 | 2.6 | 0.00 | 0.00 | 0.00 | 37 | 1010.1 |
| 20260905183045 | 98 | 352 | 2.6 | 6.1 | 0.00 | 0.00 | 0.00 | 36 | 1010.4 |
| 20260905181540 | 97 | 345 | 1.7 | 4.3 | 0.00 | 0.00 | 0.00 | 34 | 1010.5 |
| 20260905180036 | 97 | 264 | 0.0 | 4.3 | 0.00 | 0.00 | 0.00 | 40 | 1010.9 |
| 20260905174541 | 96 | 73 | 0.0 | 2.6 | 0.00 | 0.00 | 0.00 | 42 | 1011.0 |
| 20260905173035 | 96 | 320 | 1.7 | 7.8 | 0.00 | 0.00 | 0.00 | 42 | 1011.6 |
| 20260905171524 | 95 | 338 | 0.0 | 5.2 | 0.00 | 0.00 | 0.00 | 43 | 1011.9 |
| 20260905170018 | 95 | 331 | 1.7 | 6.1 | 0.00 | 0.00 | 0.00 | 43 | 1012.0 |
| 20260905164515 | 94 | 266 | 0.9 | 4.3 | 0.00 | 0.00 | 0.00 | 46 | 1012.1 |
| 20260905163014 | 94 | 307 | 0.0 | 4.3 | 0.00 | 0.00 | 0.00 | 49 | 1012.4 |
| 20260905161503 | 94 | 271 | 0.9 | 2.6 | 0.00 | 0.00 | 0.00 | 46 | 1012.4 |
| 20260905160059 | 93 | 136 | 0.0 | 5.2 | 0.00 | 0.00 | 0.00 | 49 | 1012.7 |
| 20260905154554 | 92 | 68 | 0.0 | 3.5 | 0.00 | 0.00 | 0.00 | 50 | 1012.9 |
| 20260905153048 | 91 | 271 | 1.7 | 6.1 | 0.00 | 0.00 | 0.00 | 51 | 1012.9 |
| 20260905151543 | 90 | 130 | 0.0 | 3.5 | 0.00 | 0.00 | 0.00 | 53 | 1012.9 |
| 20260905150038 | 89 | 103 | 0.9 | 3.5 | 0.00 | 0.00 | 0.00 | 52 | 1013.0 |
| 20260905144539 | 88 | 334 | 0.9 | 4.3 | 0.00 | 0.00 | 0.00 | 54 | 1013.0 |
| 20260905143031 | 88 | 83 | 0.0 | 3.5 | 0.00 | 0.00 | 0.00 | 54 | 1012.9 |
| 20260905141522 | 86 | 20 | 1.7 | 5.2 | 0.00 | 0.00 | 0.00 | 56 | 1012.9 |
| 20260905140017 | 85 | 6 | 0.9 | 3.5 | 0.00 | 0.00 | 0.00 | 57 | 1013.0 |
| 20260905134511 | 84 | 345 | 1.7 | 3.5 | 0.00 | 0.00 | 0.00 | 59 | 1013.3 |
| 20260905133007 | 83 | 18 | 1.7 | 5.2 | 0.00 | 0.00 | 0.00 | 59 | 1013.4 |
| 20260905131632 | 82 | 354 | 0.0 | 3.5 | 0.00 | 0.00 | 0.00 | 62 | 1013.5 |
| 20260905130101 | 80 | 290 | 0.9 | 5.2 | 0.00 | 0.00 | 0.00 | 63 | 1013.5 |
| 20260905124553 | 79 | 341 | 0.0 | 2.6 | 0.00 | 0.00 | 0.00 | 66 | 1013.4 |
| 20260905123055 | 77 | 340 | 0.0 | 1.7 | 0.00 | 0.00 | 0.00 | 68 | 1013.3 |
| 20260905121541 | 75 | 348 | 0.0 | 1.7 | 0.00 | 0.00 | 0.00 | 70 | 1013.3 |
| 20260905120039 | 74 | 343 | 0.0 | 0.9 | 0.00 | 0.00 | 0.00 | 71 | 1013.1 |
| 20260905114542 | 74 | 326 | 0.0 | 0.9 | 0.00 | 0.00 | 0.00 | 71 | 1012.9 |
| 20260905113041 | 72 | 118 | 0.0 | 0.0 | 0.00 | 0.00 | 0.00 | 71 | 1012.7 |
| 20260905111545 | 72 | 118 | 0.0 | 0.0 | 0.00 | 0.00 | 0.00 | 71 | 1012.5 |
| 20260905110032 | 72 | 118 | 0.0 | 0.0 | 0.00 | 0.00 | 0.00 | 71 | 1012.6 |
| 20260905104529 | 72 | 118 | 0.0 | 0.0 | 0.00 | 0.00 | 0.00 | 71 | 1012.3 |
| 20260905103031 | 72 | 118 | 0.0 | 0.0 | 0.00 | 0.00 | 0.00 | 71 | 1012.1 |
| 20260905101528 | 72 | 112 | 0.0 | 0.0 | 0.00 | 0.00 | 0.00 | 70 | 1012.0 |
| 20260905100019 | 72 | 112 | 0.0 | 0.9 | 0.00 | 0.00 | 0.00 | 70 | 1012.0 |
| 20260905094515 | 72 | 112 | 0.0 | 0.9 | 0.00 | 0.00 | 0.00 | 70 | 1012.0 |
| 20260905093011 | 72 | 111 | 0.0 | 0.9 | 0.00 | 0.00 | 0.00 | 70 | 1012.1 |
| 20260905091506 | 72 | 77 | 0.0 | 0.9 | 0.00 | 0.00 | 0.00 | 70 | 1012.1 |
| 20260905090003 | 73 | 77 | 0.0 | 0.9 | 0.00 | 0.00 | 0.00 | 70 | 1012.2 |
| 20260905084616 | 73 | 77 | 0.0 | 0.9 | 0.00 | 0.00 | 0.00 | 70 | 1012.3 |
| 20260905083056 | 73 | 77 | 0.0 | 0.0 | 0.00 | 0.00 | 0.00 | 69 | 1012.3 |
| 20260905081557 | 73 | 77 | 0.0 | 0.0 | 0.00 | 0.00 | 0.00 | 68 | 1012.4 |
| 20260905080050 | 73 | 77 | 0.0 | 0.0 | 0.00 | 0.00 | 0.00 | 68 | 1012.5 |
| 20260905074549 | 74 | 77 | 0.0 | 0.0 | 0.00 | 0.00 | 0.00 | 68 | 1012.6 |
| 20260905073047 | 73 | 77 | 0.0 | 0.9 | 0.00 | 0.00 | 0.00 | 68 | 1012.6 |